Погода в Никольском

Россия / Санкт-Петербург и Ленинградская область     59°42′16″N   30°47′20″E
В апреле 2022 года жителям России запретили посещать сайт meteo.paraplan.net по решению Генеральной прокуратуры. Аудитория сайта уменьшилась в 10 раз. Владельцы сайта не видят смысла в поддержке погодного сервера в таких условиях. Сайт будет закрыт в октябре.
темп.,
°C
ветер,
м/с
пор.,
м/с
влажн.,
%
обл.,
%
осадки,
мм/ч
давл.,
гПа
погр.,
м
30 сентября, пт
пт3000:00+7юв279699 0.5 1006290
03:00+7юв279797 0.5 1006250
06:00+7ююв2598100 0.0 1007177
09:00+8ю379587 0.1 1008402
12:00+9ююз4784100 0.1 1009721
15:00+8ююз379179 0.9 1010483
18:00+8ююз3891100 0.0 1011434
21:00+6юз38965 0.0 1012219
1 октября, сб
сб100:00+6ююз279273 0.0 1013169
03:00+5ююз28964 0.0 1014206
06:00+4юз26965 0.0 1014121
09:00+6ююз25895 0.0 1015163
12:00+11юз23715 0.0 1014613
15:00+12юз116252 0.0 10131107
18:00+10в1173100 0.0 101210
21:00+7св118495 0.0 101210
2 октября, вс
вс200:00+6св229352 0.0 101119
03:00+5ссв22965 0.0 101019
06:00+5ссв11975 0.0 101015
09:00+7с13915 0.0 1010119
12:00+11ссв23600 0.0 1010872
15:00+11св34565 0.0 1010887
18:00+7св2379100 0.0 101069
21:00+5св1288100 0.0 101125
3 октября, пн
пн300:00+5св2290100 0.0 101130
03:00+5всв2491100 0.0 101090
06:00+4св2691100 0.0 1010160
09:00+6св2886100 0.0 1009456
12:00+8св4775100 0.0 1008883
15:00+7ссв5978100 0.2 1006926
18:00+6ссв61286100 1.8 10041044
21:00+6с71493100 8.6 10001247
4 октября, вт
вт400:00+6с71394100 9.0 9961197
03:00+6ссз61394100 14.4 9931116
06:00+6сз61393100 2.3 990866
09:00+7с2597100 2.6 990477
12:00+7сз3596100 0.0 993497
15:00+6сз3693100 0.1 996566
18:00+6з2593100 0.1 1000314
21:00+6зюз259482 0.1 1002208